Time,TemperatureF,DewpointF,PressureIn,WindDirection,WindDirectionDegrees,WindSpeedMPH,WindSpeedGustMPH,Humidity,HourlyPrecipIn,Conditions,Clouds,dailyrainin,SoftwareType,DateUTC
2014-08-28 00:00:00,66.1,64.0,30.04,NNE,27,5.0,9.0,93,0.00,,,0.00,weatherlink.com 1.10,2014-08-28 05:00:00,
2014-08-28 00:15:00,66.1,64.0,30.05,ENE,76,1.0,6.0,92,0.00,,,0.00,weatherlink.com 1.10,2014-08-28 05:15:00,
2014-08-28 00:30:00,66.1,64.0,30.05,NE,44,3.0,5.0,92,0.00,,,0.00,weatherlink.com 1.10,2014-08-28 05:30:00,
2014-08-28 00:45:00,65.8,64.0,30.05,NE,45,2.0,4.0,92,0.00,,,0.00,weatherlink.com 1.10,2014-08-28 05:45:00,
2014-08-28 01:00:00,65.6,63.0,30.05,East,80,2.0,6.0,92,0.00,,,0.00,weatherlink.com 1.10,2014-08-28 06:00:00,
2014-08-28 01:15:00,65.5,63.0,30.05,NNE,32,2.0,6.0,91,0.00,,,0.00,weatherlink.com 1.10,2014-08-28 06:15:00,
2014-08-28 01:30:00,64.2,62.0,30.05,North,355,3.0,5.0,93,0.00,,,0.00,weatherlink.com 1.10,2014-08-28 06:30:00,
2014-08-28 01:45:00,63.9,63.0,30.05,NNE,26,1.0,6.0,95,0.00,,,0.00,weatherlink.com 1.10,2014-08-28 06:45:00,
2014-08-28 02:00:00,63.9,63.0,30.05,NNE,18,2.0,4.0,95,0.00,,,0.00,weatherlink.com 1.10,2014-08-28 07:00:00,
2014-08-28 02:15:00,64.0,62.0,30.05,North,11,4.0,5.0,94,0.00,,,0.00,weatherlink.com 1.10,2014-08-28 07:15:00,
2014-08-28 02:30:00,64.0,62.0,30.05,NNE,26,3.0,5.0,94,0.00,,,0.00,weatherlink.com 1.10,2014-08-28 07:30:00,
2014-08-28 02:45:00,64.1,62.0,30.05,NE,38,4.0,7.0,94,0.00,,,0.00,weatherlink.com 1.10,2014-08-28 07:45:00,
2014-08-28 03:00:00,64.1,62.0,30.05,NE,48,3.0,10.0,94,0.00,,,0.00,weatherlink.com 1.10,2014-08-28 08:00:00,
2014-08-28 03:16:00,64.3,62.0,30.05,NE,34,5.0,11.0,93,0.00,,,0.00,weatherlink.com 1.10,2014-08-28 08:16:00,
2014-08-28 03:30:00,64.3,62.0,30.05,North,5,4.0,9.0,93,0.00,,,0.00,weatherlink.com 1.10,2014-08-28 08:30:00,
2014-08-28 03:45:00,64.1,62.0,30.05,NE,40,4.0,9.0,94,0.01,,,0.01,weatherlink.com 1.10,2014-08-28 08:45:00,
2014-08-28 04:00:00,64.0,63.0,30.05,NE,42,3.0,7.0,95,0.01,,,0.01,weatherlink.com 1.10,2014-08-28 09:00:00,
2014-08-28 04:15:00,64.2,63.0,30.06,ENE,59,4.0,5.0,95,0.01,,,0.01,weatherlink.com 1.10,2014-08-28 09:15:00,
2014-08-28 04:30:00,64.3,63.0,30.06,NE,48,2.0,5.0,95,0.01,,,0.01,weatherlink.com 1.10,2014-08-28 09:30:00,
2014-08-28 04:45:00,64.3,63.0,30.06,ENE,65,4.0,7.0,95,0.00,,,0.01,weatherlink.com 1.10,2014-08-28 09:45:00,
2014-08-28 05:00:00,64.3,63.0,30.06,NE,55,3.0,6.0,95,0.00,,,0.01,weatherlink.com 1.10,2014-08-28 10:00:00,
2014-08-28 05:15:00,64.4,63.0,30.05,ENE,76,3.0,9.0,95,0.00,,,0.01,weatherlink.com 1.10,2014-08-28 10:15:00,
2014-08-28 05:30:00,64.4,63.0,30.05,NNE,32,0.0,11.0,95,0.00,,,0.01,weatherlink.com 1.10,2014-08-28 10:30:00,